Vertical_Velocity
-2 0 1 0 -0 -0 -2 -2 -2 -0 -1 -1 1 1 -0 -0 -0 -1 -1 -2 -1 -1 -2 -1 0 -0 -1 -1 -2 1 -1 -4 -0 -2 -5 -4 2 2 1 -1 2 -3 1 0 -3 -1 -0
0 1 -1 -1 1 -2 -2 -3 -2 -0 -0 -0 -0 1 0 -0 -0 -2 -2 -2 1 -2 -2 -1 0 -0 -3 -4 1 -3 -1 -0 -0 -1 -1 -4 -2 -0 2 -1 1 1 1 1 -1 1 0
-1 2 -1 0 0 -1 -1 -4 -1 1 -0 -1 -1 -0 0 -0 -0 -1 -3 -1 -1 1 0 -1 -2 -3 -2 -1 0 -2 2 3 -0 -3 -1 2 -4 -1 -4 1 -4 -2 3 2 1 1 2
-3 4 -2 0 1 2 -0 -2 -2 -1 -0 -1 -0 -1 -1 0 -0 -1 -2 -2 -4 -1 -0 -1 -2 -2 -3 -2 -0 1 0 -4 -3 1 1 -4 -1 -3 0 -2 1 2 2 2 3 -0 1
-3 2 -2 -0 1 1 -1 -1 -1 -1 -1 -1 -1 -0 -1 -1 0 -0 -2 -3 -1 3 -1 -0 -0 -3 -0 -1 -3 -1 -4 -3 -4 -1 -0 0 -2 -3 0 2 2 2 -0 -0 2 -0 0
-2 2 -2 -1 1 -1 -1 -1 -2 -1 -0 -0 -0 -1 -0 -1 -0 1 -1 1 4 -1 1 -0 -0 5 -4 -1 -2 -3 -1 -0 -2 -3 -2 1 0 1 -3 -4 -0 0 -1 -3 1 3 -1
-3 1 1 -2 1 -0 -1 -2 -1 1 -1 -0 -2 -1 -0 -2 -1 -1 -1 -5 0 2 -10 2 -1 4 -1 2 0 1 -3 -2 -1 3 -1 -1 -3 1 4 1 2 2 1 1 -2 3 0
-2 0 2 -4 3 -2 -1 -4 -1 -1 -1 0 -1 -2 -2 0 -1 -2 -2 -3 -1 -3 1 -2 -2 -2 -4 -3 0 -6 -3 -2 -1 0 -0 -1 1 3 0 0 1 0 1 -1 -2 0 3
-2 0 2 -3 2 -1 -2 -1 -2 -1 -1 -1 -3 -1 -1 -1 -0 -2 -6 -2 0 -1 2 -2 -2 -2 -1 -6 -0 -4 -4 -0 0 -2 -0 -1 5 -0 1 -1 -1 -2 -0 -0 2 -3 -2
-3 -1 -1 -1 -0 -0 -1 -2 -2 0 -1 -2 -1 -2 -3 -3 -2 -3 -3 -1 -1 2 -1 -4 -1 1 2 -0 3 0 -0 -0 2 1 1 1 1 1 -0 1 1 0 1 1 1 -1 -2
0 -1 0 -1 1 -0 -0 -3 -1 -0 0 -1 -1 -2 -1 -5 -1 -5 1 0 -1 -0 -6 -4 -0 -1 -2 3 0 2 -3 -1 1 1 2 2 -1 -1 1 3 1 1 1 1 1 1 2
-0 -1 -0 -2 -0 -2 -2 -3 -1 -2 -0 -2 -4 -2 -0 -2 -6 1 -1 -3 -1 -4 -6 3 -0 -2 -2 -4 -1 -3 5 -2 -2 1 2 2 -2 2 5 -1 0 0 1 1 1 1 -2
-1 1 -1 -2 -0 -1 -2 -3 -1 -1 -2 -1 -0 -1 -2 -1 -2 -1 0 -3 -5 -7 -3 2 0 -1 1 -1 -2 -2 -1 -3 -1 -6 -2 -2 2 1 -0 1 0 1 -1 -4 -6 -5 -2
1 0 -2 -1 -1 -3 -3 -3 -1 -1 -2 -2 0 -1 2 3 -1 -1 -0 -1 -12 -1 2 1 0 -1 -0 1 0 -2 -2 0 -2 -1 0 1 -8 2 2 2 1 -0 1 -4 -1 -1 -2
-0 -1 -2 -1 -3 -1 -1 -2 -2 -2 -3 -4 1 -1 -2 -4 -2 -0 -2 -8 3 2 3 1 -2 1 0 0 2 2 -1 1 2 1 1 -1 -3 2 -1 0 1 1 1 2 0 -1 -2
1 -1 -2 -2 -1 -2 -2 -3 -2 -2 -3 -5 -4 -1 -2 1 -1 -1 -8 -1 1 1 -0 1 2 -0 1 -1 -3 -3 -2 2 1 -0 1 -2 -3 -0 3 0 0 3 2 -4 -2 -2 -1
-1 -1 -0 1 0 -1 -2 -1 -2 -2 -3 -4 -3 -3 -0 1 -6 -4 -3 0 1 -1 -1 1 1 -0 1 1 2 -0 3 4 -0 -2 1 1 2 -5 0 -1 -1 1 0 1 0 1 0
-2 -1 1 1 0 -1 -1 -1 -2 -3 -1 -3 -4 -3 -3 2 -12 0 -0 1 -2 1 -2 1 0 1 1 0 0 0 1 1 -1 1 -0 2 2 0 -8 3 -0 -0 -1 2 0 -2 -1
-1 0 2 -0 1 1 1 0 -0 -3 -2 -7 -2 -4 -2 -5 -2 0 1 1 1 1 0 0 0 0 -0 1 -1 0 -0 1 1 0 2 2 -4 -1 -6 -0 0 -1 -0 -0 1 0 -3
1 0 -3 -2 0 -2 2 2 -2 0 -3 -5 -1 -3 -2 -3 -1 1 -0 1 1 -2 1 -1 0 -0 1 1 1 -2 -1 2 -4 1 -2 -1 0 1 -2 -2 7 -0 -1 -1 4 4 -6
-0 -2 -2 -1 0 -1 0 -2 -0 2 -5 -4 -1 1 1 -0 -0 0 -1 0 0 1 -0 -1 2 1 1 0 -1 0 -0 -3 2 -1 -1 2 1 3 -3 -0 2 1 1 -1 5 -7 9
-1 0 2 1 -1 -1 -0 -1 2 1 -1 -5 -0 -1 -1 1 -1 0 0 -2 -0 2 -0 1 1 1 0 -0 1 -1 5 1 -1 5 0 0 -4 1 -6 -2 2 1 -1 0 -0 -2 0
3 -0 0 -1 -1 -1 0 -1 -0 4 1 -4 0 -1 -2 -1 -1 0 -3 -1 -1 -1 -1 1 -1 -0 1 -5 1 0 1 -1 2 5 -0 1 1 -2 -4 0 -1 1 2 1 -1 -0 -0
-5 -1 -3 -1 16 2 -1 1 1 -1 4 4 1 -0 -1 -2 0 -3 -0 0 -0 -0 0 -0 -0 -1 5 -2 -4 -4 6 2 2 -4 4 0 -1 -0 -2 -2 0 1 0 2 2 1 0
4 0 -0 -1 -0 11 1 -1 -1 0 8 8 -1 3 -2 -0 -1 -1 1 -1 -0 -1 -1 -0 -1 -0 -2 -8 0 -2 1 0 3 1 -1 2 -0 -2 2 1 -9 4 0 0 2 5 2
4 2 -3 5 6 1 3 11 3 -0 14 13 3 9 5 -3 -6 2 -1 -0 -2 -0 -0 -2 -1 0 -3 1 1 1 -2 1 2 4 -0 0 0 0 1 2 -0 2 2 -1 2 2 2
2 3 0 1 2 5 5 10 7 6 7 3 0 13 11 0 -1 -1 -4 -4 -1 0 -0 -0 1 -3 1 0 1 0 -2 1 0 0 0 1 1 -1 -0 -0 -4 2 -1 -0 3 0 2
-0 -1 1 0 2 0 6 5 1 8 1 12 -2 4 2 1 -0 -1 1 -3 -1 0 -2 1 -1 1 2 2 1 -2 1 -1 1 -2 -3 -4 -2 -1 2 2 -3 -0 1 2 5 -0 2
1 -3 -1 -2 -1 1 -1 -3 -4 -8 2 14 3 0 -3 2 7 4 -1 5 7 0 -2 2 1 -0 1 1 -0 -1 0 1 -1 -2 -1 -2 -1 0 -4 -3 0 -0 1 1 -1 1 -2
Height
1568 1567 1565 1564 1562 1561 1559 1556 1554 1550 1547 1543 1539 1535 1532 1529 1526 1524 1522 1521 1520 1520 1519 1519 1519 1520 1520 1521 1523 1521 1519 1517 1514 1513 1513 1514 1513 1511 1510 1512 1511 1511 1513 1515 1517 1516 1516
1570 1569 1567 1565 1563 1562 1560 1557 1554 1551 1548 1544 1540 1536 1533 1530 1527 1525 1523 1522 1521 1521 1520 1521 1521 1521 1521 1524 1523 1521 1519 1517 1516 1514 1513 1511 1515 1516 1516 1517 1515 1517 1516 1516 1517 1516 1516
1571 1571 1569 1567 1565 1563 1561 1559 1556 1553 1549 1546 1542 1538 1534 1531 1528 1526 1524 1523 1523 1522 1522 1523 1523 1523 1524 1527 1524 1522 1521 1520 1518 1517 1517 1515 1514 1514 1517 1517 1519 1519 1518 1517 1517 1517 1516
1573 1572 1571 1569 1567 1565 1562 1560 1558 1554 1550 1547 1543 1539 1535 1532 1529 1527 1526 1524 1523 1524 1524 1525 1525 1524 1527 1527 1525 1524 1523 1521 1520 1518 1516 1516 1516 1515 1515 1517 1517 1518 1517 1518 1517 1517 1516
1574 1574 1572 1570 1569 1566 1564 1562 1560 1556 1552 1548 1544 1540 1536 1534 1530 1527 1526 1525 1525 1525 1525 1525 1526 1526 1530 1528 1528 1526 1523 1522 1519 1517 1517 1516 1516 1519 1518 1517 1517 1514 1521 1513 1521 1520 1520
1576 1575 1574 1571 1570 1568 1566 1563 1561 1558 1554 1550 1545 1542 1538 1535 1532 1529 1527 1527 1528 1527 1528 1528 1529 1531 1532 1532 1529 1526 1524 1523 1521 1520 1520 1518 1516 1515 1518 1525 1537 1528 1521 1517 1518 1522 1520
1577 1576 1575 1573 1572 1570 1567 1565 1562 1559 1556 1552 1547 1543 1540 1536 1533 1531 1528 1528 1532 1533 1530 1535 1536 1535 1534 1532 1531 1529 1525 1524 1524 1522 1522 1520 1524 1531 1529 1528 1529 1529 1527 1525 1514 1519 1520
1577 1577 1575 1574 1573 1571 1569 1567 1564 1561 1557 1553 1549 1545 1541 1538 1535 1532 1529 1528 1530 1535 1537 1537 1536 1536 1534 1532 1532 1531 1528 1527 1526 1527 1524 1527 1533 1530 1528 1528 1527 1526 1527 1524 1517 1519 1521
1578 1577 1576 1575 1574 1572 1570 1568 1565 1562 1558 1555 1550 1546 1542 1539 1536 1534 1532 1532 1533 1535 1537 1539 1537 1536 1536 1535 1535 1532 1530 1529 1529 1528 1530 1531 1536 1534 1531 1527 1527 1521 1522 1527 1529 1524 1515
1578 1577 1576 1575 1574 1572 1571 1569 1566 1563 1559 1555 1551 1546 1543 1539 1539 1536 1534 1535 1535 1536 1538 1544 1540 1540 1539 1535 1536 1535 1533 1535 1530 1533 1532 1531 1533 1533 1532 1530 1531 1531 1530 1529 1527 1528 1529
1577 1576 1575 1575 1574 1573 1572 1570 1567 1564 1561 1556 1552 1547 1543 1540 1540 1537 1538 1535 1535 1537 1554 1546 1545 1544 1542 1542 1541 1538 1536 1535 1537 1537 1536 1536 1536 1537 1533 1534 1533 1531 1529 1528 1528 1529 1524
1575 1575 1575 1575 1575 1573 1572 1570 1568 1565 1562 1558 1554 1550 1545 1542 1539 1538 1535 1534 1536 1540 1558 1547 1547 1546 1543 1543 1542 1539 1537 1537 1537 1537 1535 1537 1537 1536 1538 1535 1534 1532 1532 1527 1530 1533 1543
1574 1574 1574 1574 1574 1573 1572 1570 1568 1565 1562 1559 1555 1550 1546 1544 1541 1537 1535 1536 1541 1555 1549 1553 1553 1550 1547 1546 1543 1542 1541 1543 1548 1551 1543 1536 1537 1538 1538 1538 1538 1537 1538 1544 1546 1552 1538
1571 1572 1573 1573 1573 1573 1572 1570 1568 1565 1562 1559 1555 1551 1548 1545 1541 1537 1536 1537 1557 1555 1555 1555 1553 1550 1549 1549 1546 1544 1544 1547 1547 1547 1553 1553 1549 1538 1542 1541 1542 1539 1538 1558 1554 1548 1541
1569 1570 1571 1572 1572 1572 1571 1570 1568 1565 1562 1558 1555 1551 1548 1544 1541 1539 1538 1553 1568 1564 1564 1562 1553 1550 1547 1549 1549 1543 1547 1553 1555 1553 1559 1559 1542 1538 1539 1541 1544 1538 1541 1538 1543 1533 1549
1567 1568 1570 1570 1571 1570 1570 1569 1568 1565 1562 1558 1554 1551 1549 1547 1544 1542 1542 1562 1565 1566 1565 1562 1559 1556 1557 1556 1554 1552 1549 1557 1556 1555 1553 1552 1558 1536 1541 1543 1545 1544 1541 1545 1550 1556 1531
1564 1566 1568 1568 1569 1569 1569 1568 1567 1565 1563 1559 1555 1552 1552 1549 1547 1545 1558 1564 1563 1565 1565 1564 1563 1561 1560 1560 1557 1554 1553 1560 1560 1558 1555 1553 1552 1544 1537 1539 1535 1544 1544 1540 1537 1539 1539
1562 1564 1565 1566 1567 1568 1568 1567 1567 1565 1563 1560 1556 1556 1554 1551 1551 1554 1562 1562 1564 1565 1566 1567 1566 1564 1565 1563 1561 1557 1556 1557 1561 1561 1559 1555 1553 1551 1535 1530 1533 1533 1533 1535 1544 1535 1540
1559 1561 1563 1564 1565 1566 1566 1566 1566 1565 1564 1562 1559 1557 1555 1552 1558 1561 1564 1564 1564 1564 1565 1564 1564 1564 1563 1564 1567 1558 1558 1563 1560 1559 1560 1561 1556 1557 1533 1536 1535 1535 1533 1534 1535 1535 1538
1555 1557 1559 1561 1563 1564 1564 1564 1565 1565 1565 1565 1563 1562 1558 1556 1559 1561 1562 1562 1564 1566 1566 1565 1564 1566 1565 1562 1561 1562 1560 1559 1562 1560 1558 1560 1557 1554 1548 1536 1536 1535 1531 1531 1534 1535 1528
1550 1553 1555 1558 1559 1560 1562 1563 1564 1564 1564 1566 1565 1565 1564 1563 1562 1564 1565 1564 1562 1564 1566 1566 1564 1564 1566 1567 1564 1558 1558 1559 1558 1559 1560 1558 1556 1550 1542 1537 1534 1531 1531 1530 1530 1524 1531
1545 1547 1550 1553 1555 1557 1559 1560 1562 1562 1563 1564 1567 1565 1565 1564 1563 1564 1565 1563 1560 1561 1563 1563 1564 1564 1565 1563 1563 1561 1560 1560 1559 1559 1559 1555 1557 1552 1545 1536 1535 1532 1527 1524 1525 1526 1522
1537 1541 1544 1547 1550 1553 1555 1556 1558 1559 1560 1561 1562 1563 1564 1564 1564 1564 1561 1559 1561 1561 1563 1563 1564 1566 1565 1561 1558 1555 1556 1558 1557 1559 1559 1558 1559 1563 1553 1543 1539 1531 1532 1527 1520 1518 1526
1528 1533 1538 1541 1543 1547 1549 1551 1553 1554 1555 1557 1558 1560 1562 1559 1562 1561 1559 1560 1560 1562 1563 1562 1562 1563 1563 1560 1556 1551 1547 1551 1554 1554 1555 1553 1557 1565 1558 1547 1540 1534 1532 1528 1525 1525 1528
1522 1525 1529 1533 1536 1539 1541 1544 1547 1549 1551 1551 1552 1554 1555 1554 1556 1557 1556 1560 1560 1561 1564 1561 1560 1561 1559 1561 1558 1550 1546 1550 1551 1556 1556 1556 1558 1564 1564 1554 1533 1529 1532 1532 1531 1530 1532
1519 1520 1522 1525 1528 1531 1533 1537 1539 1543 1545 1544 1547 1548 1550 1550 1550 1551 1553 1556 1558 1559 1561 1559 1557 1557 1558 1561 1562 1556 1550 1545 1547 1557 1554 1555 1555 1559 1554 1556 1539 1531 1533 1533 1532 1536 1534
1515 1517 1519 1521 1522 1524 1527 1530 1532 1535 1537 1539 1540 1543 1545 1547 1546 1548 1549 1552 1553 1555 1558 1559 1558 1558 1560 1559 1559 1558 1554 1551 1551 1545 1556 1557 1558 1556 1552 1549 1536 1537 1535 1534 1535 1543 1535
1511 1512 1514 1517 1519 1520 1522 1524 1527 1529 1531 1533 1536 1539 1543 1543 1542 1543 1545 1545 1548 1550 1552 1557 1560 1559 1559 1558 1556 1552 1553 1553 1554 1543 1546 1547 1551 1552 1549 1545 1538 1535 1535 1537 1540 1538 1535
1505 1508 1510 1512 1514 1515 1517 1519 1522 1525 1528 1530 1532 1535 1539 1543 1542 1541 1541 1544 1543 1545 1547 1551 1551 1551 1551 1550 1553 1554 1553 1553 1549 1551 1543 1545 1538 1541 1539 1532 1532 1536 1536 1538 1538 1538 1535